This is the latest recevied weather packets stored in our database for station/object K9JWM. If no packets are shown the sender has not sent any weather packets the latest 10 day(s).
| Time | Temp. | Humidity | Pressure | Rain* | Wind** | Luminosity | Snow |
|---|---|---|---|---|---|---|---|
| 1777938432 | 8.33° C | 50% | 999.4 hPa | 0 mm | - | - | - |
| 1777937530 | 9.44° C | 52% | 999.1 hPa | 0 mm | - | - | - |
| 1777936631 | 9.44° C | 47% | 998.8 hPa | 0 mm | - | - | - |
| 1777935730 | 9.44° C | 48% | 998.8 hPa | 0 mm | - | - | - |
| 1777934831 | 10° C | 47% | 998.5 hPa | 0 mm | - | - | - |
| 1777933931 | 10.56° C | 43% | 998.2 hPa | 0 mm | - | - | - |
| 1777933031 | 10.56° C | 44% | 998 hPa | 0 mm | - | - | - |
| 1777932131 | 10.56° C | 47% | 997.9 hPa | 0 mm | - | - | - |
| 1777931230 | 10.56° C | 46% | 997.5 hPa | 0 mm | - | - | - |
| 1777930331 | 10.56° C | 45% | 997.3 hPa | 0 mm | - | - | - |
| 1777929431 | 11.11° C | 46% | 997.1 hPa | 0 mm | - | - | - |
| 1777928531 | 11.11° C | 49% | 996.9 hPa | 0 mm | - | - | - |
| 1777927630 | 11.11° C | 45% | 996.8 hPa | 0 mm | - | - | - |
| 1777926732 | 11.67° C | 45% | 996.5 hPa | 0 mm | - | - | - |
| 1777925831 | 11.67° C | 46% | 996.2 hPa | 0 mm | - | - | - |
| 1777924932 | 12.78° C | 44% | 995.8 hPa | 0 mm | - | - | - |
| 1777924030 | 12.78° C | 46% | 995.4 hPa | 0 mm | - | - | - |
| 1777923130 | 12.78° C | 46% | 995.2 hPa | 0 mm | - | - | - |
| 1777922230 | 12.78° C | 46% | 995 hPa | 0 mm | - | - | - |
| 1777921330 | 12.78° C | 48% | 994.7 hPa | 0 mm | - | - | - |
| 1777920430 | 12.78° C | 49% | 994.7 hPa | 0 mm | - | - | - |
| 1777919531 | 13.33° C | 45% | 994.4 hPa | 0 mm | - | - | - |
| 1777918630 | 12.78° C | 50% | 994.2 hPa | 0 mm | - | - | - |
| 1777917731 | 13.33° C | 52% | 994.1 hPa | 0 mm | - | - | - |
| 1777916831 | 12.22° C | 53% | 994 hPa | 0 mm | - | - | - |
* Rain latest hour (hover to see other rain measurements)
** Current wind speed in m/s (hover to see current wind gust speed)